Simultaneous Nadir Overpasses (SNOs) Predictions

Prediction of SNOs between NOAA-20 and AQUA Satellite Orbit:

Table of predicted SNOs for the next 14.0 days since TLE Epoch: 8/19/2023
Index Date (NOAA-20) Time (NOAA-20) Lat,Lon (NOAA-20) SZA (NOAA-20 ) Date (AQUA) Time (AQUA) Lat,Lon (AQUA) SZA (AQUA ) Distance(km) Time Diff (sec)
1 08/21/2023 04:45:16 80.79, 20.23 77.85 08/21/2023 04:45:31 80.80, 20.20 77.84 0.67 15
2 08/21/2023 05:36:00 -80.82,-172.00 102.22 08/21/2023 05:34:55 -80.82,-171.84 102.20 2.70 65
3 08/23/2023 18:29:58 -80.75, -6.73 101.20 08/23/2023 18:30:48 -80.76, -6.61 101.26 2.26 50
4 08/23/2023 19:20:39 80.82, 161.81 78.62 08/23/2023 19:20:09 80.82, 161.88 78.62 1.22 30
5 08/26/2023 09:05:19 -80.81, 135.51 100.52 08/26/2023 09:05:24 -80.81, 135.44 100.52 1.24 5
6 08/26/2023 09:54:52 81.26, -29.76 75.49 08/26/2023 09:53:39 81.75, -29.77 75.76 55.32 73
7 08/28/2023 22:49:58 80.78, 108.85 80.42 08/28/2023 22:50:36 80.78, 108.83 80.40 0.42 38
8 08/28/2023 23:40:41 -80.83, -83.00 99.71 08/28/2023 23:39:59 -80.84, -82.84 99.70 2.82 42
9 08/31/2023 12:34:38 -80.77, 82.48 98.68 08/31/2023 12:35:49 -80.77, 82.45 98.72 0.52 71



Historial Predications of SNOs between NOAA-20 and AQUA
